Location: Unnamed
(47.6264°N, 122.3366°W)
Time: 15:25:38
(UTC-07:00)

ELYUSIUM/LOWER FREE FLYE - Visible Passes

Search period start: 18 June 2021 00:00
Search period end: 28 June 2021 00:00
Orbit: 568 x 588 km, 97.7° (Epoch: 18 June)

Date Brightness Start Highest point End Pass type
(mag) Time Alt. Az. Time Alt. Az. Time Alt. Az.
18 Jun ? 21:56:37 10° SE 22:00:02 27° ENE 22:03:29 10° N visible
18 Jun ? 23:32:29 15° SSW 23:35:15 30° W 23:38:52 10° NNW visible
19 Jun ? 22:00:51 10° SE 22:04:23 29° ENE 22:07:56 10° N visible
19 Jun ? 23:36:54 14° SSW 23:39:40 27° W 23:43:10 10° NW visible
20 Jun ? 22:05:07 10° SE 22:08:44 32° ENE 22:12:23 10° N visible
20 Jun ? 23:41:19 13° SW 23:44:04 24° W 23:47:27 10° NW visible
21 Jun ? 22:09:26 10° SE 22:13:05 36° ENE 22:16:49 10° N visible
21 Jun ? 23:45:44 12° SW 23:48:29 22° W 23:51:42 10° NW visible
22 Jun ? 22:13:51 11° SE 22:17:26 40° ENE 22:21:15 10° N visible
22 Jun ? 23:50:09 11° SW 23:52:54 20° W 23:55:57 10° NW visible
23 Jun ? 22:18:16 12° SE 22:21:47 44° ENE 22:25:40 10° N visible
23 Jun ? 23:54:34 10° SW 23:57:18 18° W 00:00:10 10° NW visible
24 Jun ? 22:22:41 13° SE 22:26:08 49° ENE 22:30:05 10° N visible
24 Jun ? 23:59:07 10° SW 00:01:43 17° W 00:04:21 10° NW visible
25 Jun ? 22:27:06 14° SSE 22:30:29 55° ENE 22:34:29 10° N visible
26 Jun ? 00:03:47 10° SW 00:06:08 15° W 00:08:30 10° NW visible
26 Jun ? 22:31:31 14° SSE 22:34:50 61° ENE 22:38:53 10° N visible
27 Jun ? 00:08:31 10° WSW 00:10:33 13° W 00:12:36 10° WNW visible
27 Jun ? 22:35:55 15° SSE 22:39:12 68° ENE 22:43:16 10° N visible
